Regional Weather Roundup
Issued by NWS Huntsville, AL

Home | Current Version | Previous Version | Text Only | Print | Product List | Glossary On
Versions: 1 2 3 4 5 6 7 8 9 10 11 12 13 14 15 16 17 18 19 20 21 22 23 24 25 26 27 28 29 30 31 32 33 34 35 36 37 38 39 40 41 42 43 44 45 46 47 48 49 50
132
ASUS44 KHUN 170110
RWRHUN

WEATHER ROUNDUP FOR THE TENNESSEE VALLEY
NATIONAL WEATHER SERVICE HUNTSVILLE AL
800 PM CDT MON OCT 16 2017

ALZ001>004-170200-
NORTHWEST ALABAMA

CITY           SKY/WX    TMP DP  RH WIND       PRES   REMARKS
COURTLAND HCN    N/A     57 N/A N/A N3          N/A
RUSSELLVILLE     N/A     54 N/A N/A MISG        N/A
SHOALS AIRPORT CLEAR     58  43  57 N7        30.28R
SHOALS TVA RES   N/A     57 N/A N/A MISG        N/A
$$

ALZ005>007-016-170200-
NORTH CENTRAL ALABAMA

CITY           SKY/WX    TMP DP  RH WIND       PRES   REMARKS
DECATUR AP     CLEAR     51  47  86 N7        30.26R
HUNTSVILLE AP  CLEAR     59  45  59 N8        30.25R
MERIDIANVILLE  CLEAR     54  43  66 N7        30.26R
REDSTONE ARSN  CLEAR     56  44  64 NE9       30.23R
VINEMONT AP    FAIR      55  41  60 N7        30.26R
$$

ALZ008>010-170200-
NORTHEAST ALABAMA

CITY           SKY/WX    TMP DP  RH WIND       PRES   REMARKS
ALBERTVILLE    PTCLDY    55  48  76 N8        30.23R
FORT PAYNE     CLEAR     54  45  71 E5        30.23R
SCOTTSBORO AP  CLEAR     57  45  62 N8        30.24R
SCOTTSBORO HCN   N/A     55 N/A N/A MISG        N/A
VALLEY HEAD      N/A     50 N/A N/A MISG        N/A
$$

TNZ076-096-097-170200-
SOUTHEASTERN MIDDLE TENNESSEE

CITY           SKY/WX    TMP DP  RH WIND       PRES   REMARKS
TULLAHOMA      CLEAR     50  41  71 N3        30.28R
WINCHESTER     CLEAR     52  43  71 N5          N/A
$$

...SURROUNDING SITES...

CITY           SKY/WX    TMP DP  RH WIND       PRES   REMARKS
ATLANTA        MOCLDY    59  45  59 N14       30.16R
ANNISTON       CLEAR     56  51  84 CALM      30.20R
BIRMINGHAM     PTCLDY    54  47  77 N7        30.23R
CHATTANOOGA    CLEAR     58  42  55 N10       30.25R
CORINTH        FAIR      54  43  66 N7        30.28R
DALTON         CLEAR     54  45  71 N6        30.24R
GADSDEN        CLEAR     57  48  72 N7        30.23R
GOLDEN TRNGL   CLEAR     55  45  68 N7        30.25R
HALEYVILLE     FAIR      53  46  77 N3        30.27R
JACKSON TN     CLEAR     52  44  74 N3        30.30R
MEMPHIS        CLEAR     57  40  52 N7        30.29R
NASHVILLE      CLEAR     55  42  61 N9        30.30R
OXFORD MS      FAIR      54  43  66 VRB6      30.28R
ROME           CLEAR     58  45  62 N5        30.21R
SAVANNAH       CLEAR     52  46  82 CALM      30.28R
SELMER         CLEAR     52  45  76 N5        30.28S
TUPELO         CLEAR     53  43  68 N8        30.26R
TUSCALOOSA     PTCLDY    60  49  66 N6        30.22R
$$

...GULF COAST WEATHER...

CITY           SKY/WX    TMP DP  RH WIND       PRES   REMARKS
GULFPORT       PTCLDY    66  49  54 N6        30.14R
PASCAGOULA     CLOUDY    62  51  67 N8        30.14R
MOBILE         MOCLDY    61  52  72 N7        30.15R
GULF SHORES    CLOUDY    62  54  73 NW7       30.11R
PENSACOLA      CLOUDY    63  55  75 N10       30.10R
DESTIN         PTCLDY    69  57  65 N15G25    30.07R
PANAMA CITY    CLEAR     70  64  80 N14G23    30.04R
APPALACHICOLA  MOCLDY    74  73  97 N5        30.01R
$$





USA.gov is the U.S. government's official web portal to all federal, state and local government web resources and services.